Location: *
(45.5667°S, 177.5167°W)
Time: 17:42:39
(UTC+00:00)

CZ-2C R/B - Pass Details

Date: 29 May 2022
Orbit: 381 x 548 km, 35.0° (Epoch: 06 July)

Event Time Altitude Azimuth Distance (km) Brightness Sun altitude
Rises 06:02:38 0° 299° (WNW) 2,586 6.2 -17.8°
Reaches altitude 10° 06:05:31 10° 320° (NW) 1,665 4.5 -18.3°
Maximum altitude 06:07:57 16° 0° (N) 1,293 3.3 -18.7°
Enters shadow 06:09:16 14° 25° (NNE) 1,391 3.2 -19.0°
